Location: Miles
(41.4492°N, 81.6087°W)
Time: 17:58:23
(UTC+00:00)

Tiros 1 despin weight - Pass Details

Date: 22 September 2024
Orbit: 573 x 615 km, 48.2° (Epoch: 04 October)

Event Time Altitude Azimuth Distance (km) Brightness Sun altitude
Rises 04:32:14 0° 202° (SSW) 2,815 - -47.1°
Reaches altitude 10° 04:34:52 10° 187° (S) 1,926 - -47.2°
Maximum altitude 04:38:18 22° 136° (SE) 1,317 - -47.4°
Drops below altitude 10° 04:41:47 10° 85° (E) 1,956 - -47.6°
Sets 04:44:29 0° 70° (ENE) 2,871 - -47.7°
